Change the Weather History Date:

Saturday, August 9, 2014

  Actual Average (KMRF) Record (KMRF)
Temperature  
Mean Temperature 80 °F -  
Max Temperature 92 °F 84 °F 96 °F (2003)
Min Temperature 69 °F 59 °F 57 °F (1997)
Cooling Degree Days 15    
Growing Degree Days 30 (Base 50)    
Moisture  
Dew Point 53 °F    
Average Humidity 40    
Maximum Humidity 57    
Minimum Humidity 26    
Precipitation  
Precipitation 0.00 in - - ()
Sea Level Pressure  
Sea Level Pressure 30.17 in    
Wind  
Wind Speed 9 mph (WSW)    
Max Wind Speed 17 mph    
Max Gust Speed 25 mph    
Visibility 10 miles    
Events      
Averages and records for this station are not official NWS values.
T = Trace of Precipitation, MM = Missing Value Source: NWS Daily Summary

Daily Weather History Graph

Daily Weather History Graph

Search for Another Location

Airport or City:

Trip Planner

Search our weather history database for the weather conditions in past years. The results will help you decide how hot, cold, wet, or windy it might be!

Date:

Astronomy

Aug. 09, 2014 Rise Set
Actual Time 7:18 AM CDT 8:41 PM CDT
Civil Twilight 6:52 AM CDT 9:07 PM CDT
Nautical Twilight 6:21 AM CDT 9:38 PM CDT
Astronomical Twilight 5:50 AM CDT 10:09 PM CDT
Moon 7:47 PM CDT (8/9) 6:01 AM CDT (8/9)
Length of Visible Light 14h 15m
Length of Day
13h 23m
Waxing Gibbous, 98% of the Moon is Illuminated
Aug 9
Waxing Gibbous
Aug 10
Full
Aug 17
Last Quarter
Aug 25
New
Sep 2
First Quarter

Hourly Weather History & Observations

Time (CDT) Temp. Heat Index Dew Point Humidity Pressure Visibility Wind Dir Wind Speed Gust Speed Precip Events Conditions
12:35 AM 79.0 °F - 51.3 °F 38% 30.15 in 10.0 mi SE 15.0 mph 20.7 mph N/A   Clear
12:55 AM 78.8 °F - 51.4 °F 38% 30.15 in 10.0 mi SSE 12.7 mph 19.6 mph N/A   Scattered Clouds
1:15 AM 78.8 °F - 51.4 °F 38% 30.15 in 10.0 mi SSE 11.5 mph - N/A   Scattered Clouds
1:35 AM 78.6 °F - 51.4 °F 39% 30.15 in 10.0 mi South 10.4 mph - N/A   Scattered Clouds
1:55 AM 77.5 °F - 51.3 °F 40% 30.15 in 10.0 mi South 9.2 mph - N/A   Clear
2:15 AM 77.4 °F - 51.1 °F 40% 30.15 in 10.0 mi SSW 8.1 mph - N/A   Clear
2:35 AM 76.5 °F - 50.9 °F 41% 30.15 in 10.0 mi South 6.9 mph - N/A   Clear
2:55 AM 75.0 °F - 50.5 °F 42% 30.15 in 10.0 mi SW 8.1 mph - N/A   Clear
3:15 AM 74.8 °F - 50.7 °F 43% 30.15 in 10.0 mi SW 9.2 mph - N/A   Clear
3:35 AM 75.6 °F - 50.4 °F 41% 30.15 in 10.0 mi SSW 10.4 mph - N/A   Clear
3:55 AM 73.9 °F - 50.5 °F 44% 30.15 in 10.0 mi SSW 11.5 mph - N/A   Clear
4:15 AM 73.2 °F - 50.7 °F 45% 30.15 in 10.0 mi South 6.9 mph - N/A   Clear
4:35 AM 74.1 °F - 51.1 °F 44% 30.15 in 10.0 mi South 5.8 mph - N/A   Clear
4:55 AM 75.4 °F - 51.8 °F 44% 30.15 in 10.0 mi SSW 8.1 mph - N/A   Clear
5:15 AM 75.2 °F - 52.2 °F 44% 30.16 in 10.0 mi SSW 8.1 mph - N/A   Scattered Clouds
5:35 AM 74.1 °F - 52.7 °F 47% 30.16 in 10.0 mi SSW 8.1 mph - N/A   Clear
5:55 AM 74.3 °F - 54.0 °F 49% 30.15 in 10.0 mi SSW 10.4 mph - N/A   Clear
6:15 AM 73.4 °F - 54.1 °F 51% 30.16 in 10.0 mi SSW 5.8 mph - N/A   Clear
6:35 AM 72.3 °F - 53.8 °F 52% 30.17 in 10.0 mi SSE 3.5 mph - N/A   Clear
6:55 AM 70.7 °F - 54.1 °F 56% 30.17 in 10.0 mi West 3.5 mph - N/A   Clear
7:15 AM 69.8 °F - 54.1 °F 57% 30.17 in 10.0 mi SW 8.1 mph - N/A   Clear
7:35 AM 72.5 °F - 54.5 °F 53% 30.17 in 10.0 mi SSW 5.8 mph - N/A   Clear
7:55 AM 71.4 °F - 54.9 °F 56% 30.17 in 10.0 mi WSW 3.5 mph - N/A   Clear
8:15 AM 73.2 °F - 55.6 °F 54% 30.17 in 10.0 mi WSW 4.6 mph - N/A   Scattered Clouds
8:35 AM 75.7 °F - 55.9 °F 50% 30.19 in 10.0 mi SW 4.6 mph - N/A   Clear
8:55 AM 76.1 °F - 56.3 °F 50% 30.19 in 10.0 mi Calm Calm - N/A   Clear
9:15 AM 77.5 °F - 56.5 °F 48% 30.19 in 10.0 mi Calm Calm - N/A   Clear
9:35 AM 78.6 °F - 56.5 °F 46% 30.20 in 10.0 mi South 8.1 mph - N/A   Clear
9:55 AM 80.6 °F 80.7 °F 56.8 °F 44% 30.20 in 10.0 mi South 6.9 mph - N/A   Clear
10:15 AM 81.7 °F 81.5 °F 57.0 °F 43% 30.20 in 10.0 mi South 8.1 mph - N/A   Clear
10:35 AM 82.4 °F 82.0 °F 57.0 °F 42% 30.20 in 10.0 mi SSW 5.8 mph - N/A   Clear
10:55 AM 82.9 °F 82.4 °F 56.8 °F 41% 30.20 in 10.0 mi SE 3.5 mph - N/A   Clear
11:15 AM 84.2 °F 83.2 °F 56.3 °F 38% 30.21 in 10.0 mi SSW 4.6 mph - N/A   Clear
11:35 AM 84.0 °F 83.2 °F 56.3 °F 39% 30.20 in 10.0 mi WSW 4.6 mph - N/A   Scattered Clouds
11:55 AM 85.5 °F 84.1 °F 55.4 °F 36% 30.21 in 10.0 mi SSW 4.6 mph - N/A   Mostly Cloudy
12:15 PM 85.1 °F 83.8 °F 55.6 °F 36% 30.21 in 10.0 mi WSW 4.6 mph - N/A   Mostly Cloudy
12:35 PM 87.4 °F 85.7 °F 55.4 °F 33% 30.20 in 10.0 mi WNW 5.8 mph - N/A   Overcast
12:55 PM 88.0 °F 86.1 °F 54.7 °F 32% 30.20 in 10.0 mi West 5.8 mph - N/A   Overcast
1:15 PM 87.1 °F 85.3 °F 54.5 °F 33% 30.19 in 10.0 mi SW 4.6 mph - N/A   Overcast
1:35 PM 86.4 °F 84.9 °F 55.8 °F 35% 30.19 in 10.0 mi West 15.0 mph 19.6 mph N/A   Overcast
1:55 PM 83.1 °F 82.1 °F 54.0 °F 37% 30.19 in 10.0 mi NW 13.8 mph 21.9 mph N/A   Overcast
2:15 PM 78.8 °F - 56.7 °F 46% 30.19 in 10.0 mi NW 13.8 mph 18.4 mph N/A   Mostly Cloudy
2:35 PM 81.0 °F 80.8 °F 55.9 °F 42% 30.17 in 10.0 mi NW 17.3 mph - N/A   Mostly Cloudy
2:55 PM 83.8 °F 83.0 °F 56.3 °F 39% 30.17 in 10.0 mi NW 10.4 mph - N/A   Scattered Clouds
3:15 PM 88.3 °F 86.3 °F 53.8 °F 31% 30.16 in 10.0 mi NNW 8.1 mph - N/A   Clear
3:35 PM 91.2 °F - 51.6 °F 26% 30.15 in 10.0 mi East 13.8 mph - N/A   Clear
4:15 PM 85.5 °F 84.0 °F 54.7 °F 35% 30.14 in 10.0 mi NNW 17.3 mph 25.3 mph N/A   Mostly Cloudy
4:35 PM 84.7 °F 83.6 °F 55.4 °F 37% 30.13 in 10.0 mi NNW 15.0 mph 23.0 mph N/A   Scattered Clouds
4:55 PM 86.7 °F 85.1 °F 54.9 °F 34% 30.13 in 10.0 mi NNW 13.8 mph - N/A   Scattered Clouds
5:15 PM 87.4 °F 85.5 °F 54.0 °F 32% 30.13 in 10.0 mi NNW 16.1 mph 19.6 mph N/A   Scattered Clouds
5:35 PM 88.0 °F 85.9 °F 53.4 °F 31% 30.12 in 10.0 mi North 11.5 mph - N/A   Clear
5:55 PM 88.3 °F 86.1 °F 53.1 °F 30% 30.12 in 10.0 mi NW 11.5 mph - N/A   Clear
6:15 PM 87.8 °F 85.5 °F 53.1 °F 30% 30.12 in 10.0 mi NNW 13.8 mph 17.3 mph N/A   Clear
6:35 PM 88.2 °F - 52.7 °F 30% 30.12 in 10.0 mi NW 13.8 mph - N/A   Clear
6:55 PM 88.9 °F - 50.5 °F 27% 30.12 in 10.0 mi North 5.8 mph - N/A   Mostly Cloudy
7:15 PM 87.3 °F - 51.8 °F 29% 30.12 in 10.0 mi North 13.8 mph - N/A   Overcast
7:35 PM 85.8 °F - 52.0 °F 31% 30.12 in 10.0 mi North 10.4 mph - N/A   Scattered Clouds
7:55 PM 84.0 °F - 51.6 °F 33% 30.12 in 10.0 mi NW 9.2 mph - N/A   Clear
8:15 PM 82.2 °F - 52.2 °F 35% 30.13 in 10.0 mi North 4.6 mph - N/A   Clear
8:35 PM 82.6 °F - 49.5 °F 31% 30.15 in 10.0 mi NE 9.2 mph - N/A   Clear
8:55 PM 81.5 °F - 49.5 °F 33% 30.15 in 10.0 mi NE 9.2 mph - N/A   Clear
9:15 PM 80.1 °F - 50.2 °F 35% 30.16 in 10.0 mi ENE 5.8 mph - N/A   Clear
9:35 PM 78.1 °F - 50.9 °F 39% 30.17 in 10.0 mi ENE 3.5 mph - N/A   Clear
9:55 PM 77.9 °F - 51.4 °F 40% 30.18 in 10.0 mi ENE 6.9 mph - N/A   Clear
10:15 PM 77.7 °F - 51.8 °F 40% 30.19 in 10.0 mi ENE 4.6 mph - N/A   Clear
11:15 PM 73.0 °F - 51.8 °F 47% 30.21 in 10.0 mi Calm Calm - N/A   Clear
11:35 PM 73.8 °F - 52.7 °F 48% 30.21 in 10.0 mi Calm Calm - N/A   Clear
11:55 PM 72.0 °F - 52.7 °F 51% 30.22 in 10.0 mi Calm Calm - N/A   Clear